Lapse_Rate
4.5 4.5 4.5 4.5 4.5 4.6 4.7 4.7 4.7 4.7 4.7 4.8 5.0 5.2 5.3 5.2 4.9 5.0 5.0 4.9 4.7 4.5 4.3 4.2 4.2 4.3 4.7 5.3 5.5 5.4 6.1 6.7 7.1 7.4 7.8 8.1 8.1 8.1 7.9 8.3 8.5 8.7 8.8 9.0 8.6 7.8 7.9
4.8 4.8 4.7 4.6 4.6 4.6 4.7 4.8 4.9 4.9 4.8 4.8 4.9 5.0 5.3 5.5 5.4 5.2 5.0 5.0 5.1 5.1 4.7 4.5 4.3 4.3 4.7 5.3 5.2 5.5 5.7 6.4 7.0 7.6 8.0 8.0 8.2 8.4 7.9 8.2 8.4 8.7 8.9 9.1 9.0 8.2 8.1
4.4 4.4 4.5 4.5 4.7 4.8 4.9 4.9 4.9 5.0 5.0 5.0 5.0 5.0 5.1 5.3 5.6 5.5 5.2 5.1 5.2 5.2 5.3 5.0 4.8 4.7 4.9 5.1 5.1 5.6 5.7 6.3 6.8 7.2 8.1 8.3 8.5 8.3 8.3 8.2 8.7 8.4 8.7 8.8 8.7 8.1 7.8
4.7 4.6 4.5 4.5 4.5 4.5 4.8 5.0 5.1 5.0 5.1 5.1 5.0 5.1 5.2 5.3 5.5 5.7 5.4 5.2 5.4 5.4 5.4 5.4 5.3 5.1 5.3 5.0 5.4 5.7 5.6 5.9 6.7 7.0 7.7 7.8 7.8 7.9 8.4 8.2 8.7 8.6 8.6 8.6 8.5 8.2 8.0
4.6 4.6 4.7 4.7 4.6 4.6 4.6 4.6 4.8 5.0 5.1 5.1 5.3 5.2 5.2 5.4 5.6 5.7 5.5 5.5 5.7 5.6 5.7 5.6 5.5 5.4 5.7 5.2 5.4 5.5 5.5 5.7 6.4 6.9 7.0 7.2 7.6 7.9 8.0 7.8 8.0 7.9 8.2 8.7 8.2 8.0 8.2
4.6 4.6 4.7 4.7 4.7 4.8 4.8 4.8 4.8 4.8 4.9 5.1 5.2 5.3 5.4 5.4 5.5 5.8 5.7 5.5 5.8 5.8 5.9 5.7 5.7 5.5 5.7 5.4 5.4 5.6 5.7 5.3 5.6 6.2 6.6 6.7 7.2 7.4 7.6 7.5 7.1 7.8 8.2 8.4 8.2 8.2 8.0
4.7 4.7 4.6 4.7 4.8 4.8 4.8 4.8 4.8 4.8 4.9 5.1 5.2 5.3 5.4 5.4 5.6 5.7 5.8 5.5 5.7 5.6 5.9 6.0 5.9 5.7 5.8 5.3 5.3 5.3 5.6 5.5 5.2 5.5 5.8 6.3 6.6 6.6 7.1 7.6 8.1 8.2 8.5 8.5 8.3 7.9 8.3
4.5 4.6 4.6 4.6 4.7 4.8 4.8 4.8 4.9 4.9 4.9 5.0 5.1 5.3 5.4 5.4 5.6 5.5 5.6 5.7 5.8 5.2 5.5 6.3 6.1 5.9 6.4 5.6 5.2 5.4 5.1 5.3 5.1 5.2 5.6 5.9 5.9 7.5 8.0 8.1 8.0 8.0 8.2 8.4 8.3 8.0 7.8
4.5 4.6 4.7 4.7 4.7 4.7 4.7 4.7 4.7 4.8 4.9 5.1 5.1 5.3 5.6 5.5 5.6 5.5 5.5 5.4 5.5 5.1 4.7 7.6 6.7 6.5 6.4 6.0 5.8 5.8 5.2 5.2 5.2 5.2 5.4 5.6 6.3 7.9 7.9 8.0 7.8 7.5 7.9 8.0 8.2 8.2 8.1
4.7 4.7 4.6 4.6 4.6 4.8 4.9 4.9 4.9 4.8 4.8 4.9 5.0 5.4 5.4 5.5 5.6 5.6 5.5 5.6 5.3 4.6 4.6 6.9 6.5 6.6 6.3 6.3 5.9 6.2 5.5 5.5 5.3 5.4 5.3 5.4 6.7 7.8 7.6 7.9 8.1 8.0 8.2 8.4 8.6 8.7 8.4
4.9 4.9 4.7 4.6 4.6 4.5 4.7 4.8 4.9 5.0 5.0 5.2 5.0 5.0 5.5 5.6 5.6 5.1 5.7 5.6 5.2 4.5 4.0 6.9 6.4 6.5 6.2 6.4 6.2 6.1 6.1 5.6 5.4 5.6 5.6 5.7 6.6 7.2 7.3 7.6 7.9 8.5 8.7 8.9 9.0 8.9 8.8
4.7 4.7 4.7 4.8 4.8 4.7 4.6 4.6 4.8 5.0 5.1 5.3 5.3 5.0 5.5 5.5 5.6 5.0 5.6 5.8 5.1 4.8 4.2 7.1 6.7 6.4 6.6 6.8 6.6 6.4 6.2 6.3 6.1 5.9 5.9 6.1 6.6 7.6 7.7 8.0 8.2 8.6 9.1 8.9 8.8 8.7 7.6
4.2 4.3 4.4 4.4 4.4 4.6 4.8 4.7 4.7 4.9 5.0 5.2 5.4 5.3 5.1 5.6 5.5 5.2 5.5 5.6 5.1 4.8 6.3 7.1 6.9 6.9 6.7 7.0 7.0 6.7 6.7 6.4 6.2 6.1 6.1 6.3 6.3 7.2 8.0 8.2 8.4 8.6 8.9 8.6 7.8 7.0 6.8
4.1 4.0 4.1 4.2 4.2 4.4 4.5 4.6 4.8 4.9 5.0 5.2 5.3 5.6 5.5 5.5 5.3 5.4 5.5 5.1 4.8 5.4 6.7 7.4 7.0 7.5 7.2 7.8 7.8 7.3 7.0 6.8 6.7 6.7 6.6 6.6 6.8 6.8 7.6 8.0 8.6 8.6 8.9 8.5 7.3 6.5 7.7
3.7 3.8 3.8 3.9 4.1 4.3 4.1 4.4 4.7 5.0 5.1 5.3 5.6 5.8 5.9 5.7 5.5 5.5 5.4 4.7 5.0 5.8 7.0 6.7 6.9 7.1 7.7 7.9 8.1 7.5 7.1 7.4 7.3 7.0 6.7 7.2 6.9 7.2 7.9 8.1 8.5 8.7 8.7 8.8 8.9 8.2 7.7
3.2 3.5 3.5 3.5 3.7 3.7 4.0 4.0 4.4 4.8 5.2 5.2 5.7 6.0 5.9 5.9 5.9 5.6 5.4 5.0 5.2 6.2 6.9 6.7 6.5 7.0 7.7 7.9 7.7 7.5 7.2 7.5 7.8 7.9 7.8 7.6 7.5 7.5 7.7 8.2 8.6 8.6 8.8 8.9 8.5 6.7 7.0
3.4 3.4 3.7 3.6 3.8 3.8 3.7 3.8 4.1 4.4 5.0 5.1 5.2 5.7 6.0 5.9 6.0 5.8 5.4 5.2 5.9 6.7 6.9 6.6 6.5 6.6 7.0 7.6 7.5 7.3 6.9 7.8 8.1 8.4 8.5 8.0 8.0 7.8 7.8 7.9 8.0 8.5 8.6 8.7 8.7 8.7 6.3
3.1 3.3 3.3 3.5 3.6 3.7 3.7 3.8 4.2 4.3 4.8 4.9 5.0 5.3 5.8 5.8 5.7 5.6 5.5 5.8 6.2 6.7 6.5 6.2 6.4 6.6 7.1 7.3 7.4 7.0 7.2 7.8 8.5 8.9 8.6 8.4 8.4 7.8 7.8 8.1 8.2 8.4 8.6 8.7 8.8 8.0 8.5
3.0 2.9 3.3 3.7 3.9 4.3 4.4 4.3 4.4 4.3 4.5 5.0 4.9 5.2 5.7 5.7 5.5 5.6 5.5 5.6 5.7 6.2 6.4 6.3 6.3 6.5 7.1 7.1 7.1 7.6 8.0 8.5 9.2 9.0 9.0 8.9 8.5 8.0 8.1 8.4 8.2 8.4 8.6 8.8 9.0 9.2 8.9
3.4 3.8 4.1 4.5 4.6 4.7 4.7 4.7 4.7 4.6 4.6 4.8 4.8 5.3 5.5 6.0 5.7 5.6 5.2 5.4 5.7 6.0 6.1 6.1 6.2 6.5 6.8 7.0 7.3 7.2 8.1 8.8 8.9 9.0 8.8 9.3 8.1 8.4 7.5 7.6 8.1 8.2 8.4 8.8 9.1 9.1 9.1
4.3 4.6 4.9 4.8 5.3 5.3 4.9 5.0 5.2 5.1 5.0 5.1 5.4 5.3 5.8 5.8 5.2 5.2 4.8 4.9 5.6 6.0 6.0 6.3 6.3 6.7 6.8 7.0 7.4 7.3 7.9 8.4 9.0 8.7 8.7 8.9 8.6 8.4 7.9 8.1 8.4 8.6 8.5 8.7 9.1 9.1 9.3
5.7 6.0 6.1 5.6 5.5 5.4 5.5 5.8 5.7 5.9 5.8 5.6 5.6 5.7 5.8 5.9 5.7 5.3 5.1 5.0 5.3 5.6 6.0 6.2 6.5 7.0 7.1 6.9 7.4 7.6 8.0 8.6 8.7 8.7 8.4 8.0 8.4 8.4 8.3 8.4 8.8 8.8 8.9 9.2 9.4 9.5 9.2
5.0 5.0 4.9 5.2 5.6 5.8 6.1 6.3 6.3 6.4 6.3 6.1 6.0 5.8 5.9 6.2 6.0 5.5 5.6 5.2 5.6 5.7 6.1 6.4 7.0 6.7 7.1 7.5 7.3 7.5 7.6 8.1 8.5 8.4 7.7 7.7 8.2 8.4 8.4 8.7 9.0 8.7 9.0 9.0 9.2 9.3 9.2
5.4 6.0 6.3 6.4 6.4 6.3 6.2 6.1 6.2 6.3 6.4 6.5 6.3 6.1 6.2 6.4 6.6 6.5 6.0 5.4 5.8 5.9 5.8 7.1 7.2 6.8 7.3 7.2 7.5 7.7 7.9 8.1 8.5 8.5 7.9 8.0 8.0 8.2 8.2 8.4 7.5 9.0 9.1 9.2 9.3 9.3 9.5
6.4 6.6 6.7 6.7 6.3 6.4 6.7 6.3 6.5 6.5 6.3 6.7 6.6 6.2 6.2 6.6 7.1 7.3 6.6 6.2 6.1 6.5 6.4 7.3 7.5 7.4 7.4 7.2 7.5 7.8 7.9 8.2 8.2 8.3 7.6 7.7 8.0 8.2 8.1 8.2 8.8 9.3 9.3 9.2 9.1 9.1 9.3
6.2 6.3 6.5 6.3 6.4 6.3 6.3 6.2 6.4 6.9 6.8 6.4 6.9 6.5 6.6 6.7 7.2 7.4 7.5 6.9 6.5 6.5 6.7 7.3 7.6 7.4 7.7 7.3 7.5 7.9 8.0 8.1 7.3 7.5 7.2 7.3 7.8 8.2 8.0 8.1 7.3 9.0 9.2 9.3 9.2 9.2 9.0
6.3 6.2 6.2 6.1 6.1 5.9 6.1 6.2 6.4 6.3 6.5 6.3 7.1 6.7 6.6 6.8 7.5 7.0 7.3 7.1 6.9 6.7 6.9 7.5 7.6 7.4 7.5 7.4 7.6 7.9 8.2 8.2 8.2 7.2 7.5 6.3 7.8 8.0 7.9 7.9 8.3 8.5 8.6 8.7 8.5 8.5 9.2
6.3 6.4 6.4 6.4 6.5 6.4 6.5 6.7 6.6 6.6 6.5 6.3 6.3 6.6 6.6 6.8 7.7 7.3 7.0 7.4 7.2 7.2 6.9 6.9 7.6 7.4 7.3 7.3 7.4 7.9 8.1 8.2 8.1 7.5 7.5 6.6 6.2 7.0 7.2 7.2 7.4 7.8 8.1 8.4 8.6 9.3 8.7
6.2 6.4 6.5 6.7 6.7 7.1 7.1 6.9 7.0 6.8 6.7 6.3 6.2 6.2 6.5 6.8 8.0 7.5 7.7 7.7 7.5 7.4 7.3 6.9 7.2 7.0 7.0 7.0 7.0 7.6 7.9 8.2 8.4 7.3 6.9 7.2 6.7 7.6 6.7 5.9 6.7 7.4 7.7 7.1 7.4 8.6 8.7
Wind_Speed
22 23 23 24 24 25 25 25 25 25 26 26 28 28 28 28 29 28 27 26 26 25 21 18 14 11 4 0 11 5 8 4 10 10 10 8 7 7 6 5 4 6 4 9 9 11 11
20 21 22 23 24 25 26 26 27 27 27 27 27 28 29 29 29 30 29 27 27 26 23 16 9 4 2 5 4 2 6 5 7 7 8 8 8 7 5 4 5 3 3 9 7 8 5
21 22 22 23 23 24 25 27 28 29 29 28 28 28 29 30 30 31 31 30 29 28 22 10 4 3 1 17 3 5 2 4 5 6 7 4 4 3 3 1 3 5 6 9 4 4 5
21 23 24 24 24 25 25 25 26 28 29 30 31 30 29 29 30 33 32 32 31 26 13 5 8 2 7 5 4 7 4 3 4 5 4 5 3 2 3 1 5 3 5 6 4 7 8
21 22 23 24 25 26 26 27 28 27 27 28 30 31 32 32 30 30 34 34 29 7 4 10 4 3 9 7 4 3 5 4 7 4 5 4 6 3 1 5 4 3 7 4 3 6 7
20 21 23 24 25 25 26 26 29 29 29 30 30 31 33 32 33 32 35 30 6 2 3 3 3 1 4 3 3 2 2 5 2 6 3 3 4 3 3 4 6 6 6 3 7 9 8
20 21 22 23 24 25 26 27 28 29 29 30 30 30 32 34 33 31 17 4 4 2 2 7 5 5 9 7 5 3 4 4 3 4 6 5 4 7 10 9 8 8 7 17 1 3 3
21 22 23 22 23 25 25 27 28 29 30 30 30 30 31 35 33 32 2 3 4 2 10 11 19 15 16 3 5 11 7 6 4 6 2 3 9 9 8 6 8 10 7 10 2 4 4
21 22 22 22 23 25 24 25 26 27 29 30 31 31 30 34 39 3 2 4 4 3 3 9 7 6 6 13 13 18 9 5 5 7 4 6 4 11 8 5 7 5 10 6 15 5 3
22 22 20 23 24 25 25 26 26 27 28 29 31 31 29 34 3 4 5 2 7 2 3 8 5 6 4 8 5 14 11 7 5 12 7 6 7 9 9 11 8 7 8 8 9 9 7
22 23 23 23 24 26 26 26 27 29 29 29 31 30 27 15 5 4 1 8 6 2 5 4 4 1 4 7 3 6 7 4 9 6 6 7 5 8 5 8 9 9 8 11 8 8 5
21 22 23 24 24 25 26 27 28 28 30 32 30 35 25 1 3 9 13 6 2 4 7 6 3 1 4 2 5 2 6 4 7 6 3 10 4 8 12 5 10 9 7 6 4 4 2
21 23 24 23 23 24 24 27 28 29 32 34 34 36 20 5 5 4 5 3 2 4 4 4 2 3 3 5 6 3 8 7 7 7 7 2 7 4 4 5 1 6 6 2 2 2 6
21 22 23 23 23 24 24 27 29 30 32 36 38 39 6 5 8 5 2 4 5 5 9 5 4 4 2 5 5 6 5 5 3 5 4 6 6 8 4 8 8 6 9 6 6 5 5
22 22 21 22 21 20 22 26 27 30 33 39 35 3 3 4 14 3 4 4 8 7 5 2 5 2 3 4 4 3 4 9 10 10 11 7 8 4 4 5 10 4 4 7 7 2 2
21 22 23 22 22 21 21 25 27 29 33 37 8 5 4 1 13 4 3 7 7 6 3 3 2 3 1 3 6 6 3 4 6 11 6 9 1 9 7 3 4 10 9 3 3 5 5
21 22 22 22 21 21 21 22 25 28 32 31 3 4 3 2 1 4 4 7 7 8 4 4 4 2 1 2 5 3 6 5 5 5 9 7 5 7 7 12 15 3 4 5 6 5 7
21 20 21 20 21 21 23 20 20 24 29 7 3 3 2 2 1 1 3 6 5 4 2 4 1 5 6 6 5 6 9 9 6 6 5 10 10 10 12 4 6 11 11 9 7 6 3
20 21 19 21 21 21 22 19 18 20 19 6 4 4 5 2 3 3 5 5 3 3 4 2 4 6 4 6 4 8 8 9 13 7 7 6 5 10 7 5 1 5 5 6 5 4 8
22 22 18 20 20 20 19 18 17 17 18 3 3 4 4 3 0 2 5 5 4 5 6 5 5 4 3 5 6 6 4 3 4 3 16 14 6 11 17 15 5 5 7 7 7 5 6
22 21 19 21 18 19 19 17 15 13 17 1 2 4 1 4 2 3 2 4 4 4 3 3 4 7 9 7 7 8 10 13 4 3 6 3 12 9 20 9 7 8 7 9 8 7 7
22 19 19 20 21 19 16 14 14 10 13 1 3 3 4 4 4 4 2 3 3 4 3 6 6 8 9 10 10 9 9 7 5 3 5 4 6 6 17 13 11 9 8 9 7 3 7
22 21 21 21 21 19 16 16 12 7 3 1 2 3 2 4 4 2 3 1 6 11 8 12 8 7 11 8 7 10 7 6 7 7 2 3 1 3 11 7 6 5 16 9 6 6 9
23 23 24 23 22 19 18 17 10 7 5 3 1 1 3 5 4 4 8 9 14 9 8 14 12 5 5 9 10 6 5 7 7 5 6 3 1 4 13 4 5 12 4 12 11 3 5
23 24 24 24 23 19 18 16 13 10 7 2 2 1 2 6 6 11 9 5 10 10 5 8 11 7 6 5 3 3 2 2 2 7 3 4 2 3 4 6 4 1 3 4 7 4 4
24 23 24 23 21 20 21 18 16 10 11 3 3 3 2 4 5 9 3 7 6 4 5 5 6 7 2 2 2 6 6 6 3 4 2 5 5 4 2 6 8 4 3 2 4 1 7
25 25 23 23 21 20 18 17 15 13 16 3 3 5 2 4 10 10 6 5 4 3 3 5 7 7 3 1 2 3 5 1 7 13 2 5 4 1 1 2 5 4 9 4 5 3 5
23 22 21 21 19 16 15 17 16 13 14 4 3 6 3 4 12 11 12 10 8 4 3 5 7 2 3 2 2 3 1 1 1 12 14 6 2 4 2 3 1 13 7 6 7 8 4
20 19 20 19 17 16 18 15 14 13 12 4 2 3 2 4 6 11 16 19 16 17 4 4 3 3 3 1 2 3 2 2 2 4 6 7 5 3 2 1 5 8 4 4 4 16 10
Wind_Direction
4 359 358 357 357 355 353 351 350 350 348 345 343 341 339 337 335 331 326 322 319 318 317 315 315 319 322 247 247 290 327 102 139 152 175 161 152 156 184 193 180 221 213 161 164 161 155
0 358 356 354 354 353 351 349 347 347 346 343 342 339 336 335 333 329 324 320 317 316 312 307 303 303 267 251 235 59 45 136 148 126 169 158 183 194 169 206 151 271 157 145 125 115 109
357 354 353 353 351 351 348 348 346 344 342 340 339 339 335 332 331 327 322 317 317 315 307 289 230 194 203 240 180 329 299 204 183 149 150 216 156 108 128 210 250 160 101 69 80 115 101
354 352 350 349 348 346 345 346 345 342 339 336 336 336 334 332 329 324 320 317 317 313 302 172 159 156 239 253 308 295 176 234 168 152 139 201 167 162 193 225 36 93 63 113 203 146 170
349 349 348 347 346 343 341 341 341 339 336 335 334 333 331 330 328 324 318 316 313 314 114 144 125 155 268 313 276 291 169 180 146 149 194 126 125 180 56 102 43 345 150 130 173 201 147
345 346 345 345 343 341 338 339 337 336 335 335 336 334 331 329 328 325 322 311 274 31 166 204 252 4 266 261 312 257 189 155 135 113 107 136 74 110 47 95 192 185 167 119 197 195 166
344 344 342 342 341 341 340 338 335 335 334 333 333 332 332 327 327 324 333 355 9 340 198 219 202 256 284 269 279 269 116 97 122 98 159 189 138 181 185 184 192 156 172 187 171 27 42
342 340 340 340 341 340 340 339 337 335 333 333 332 332 333 327 325 321 316 18 102 195 301 228 248 247 245 52 300 272 126 141 129 193 189 103 208 193 174 176 167 169 154 207 330 148 150
338 336 336 337 339 337 336 336 335 333 332 332 330 331 335 330 322 338 276 231 355 14 251 290 219 230 223 183 219 253 156 157 149 175 202 173 231 145 142 172 133 171 177 166 218 145 65
335 333 337 337 337 338 336 335 334 333 332 330 328 328 336 337 19 321 276 40 337 253 1 276 270 267 145 145 233 217 181 149 167 187 159 218 224 163 155 174 150 159 208 166 144 143 201
333 335 335 335 336 337 335 333 334 333 329 330 326 321 329 335 283 298 215 331 313 111 326 247 271 162 159 163 194 220 174 116 183 165 133 232 201 164 170 185 165 211 155 157 161 174 119
327 330 331 330 332 331 332 332 331 330 330 327 325 314 326 337 245 244 312 332 43 51 251 301 246 340 100 238 289 66 143 112 159 179 147 219 228 164 185 188 175 142 103 63 61 101 126
321 325 326 324 323 325 330 332 331 332 329 325 321 311 306 249 229 135 290 38 55 184 308 263 311 12 215 225 216 227 153 160 167 167 211 266 246 208 151 141 71 87 79 357 22 66 208
315 321 322 323 323 324 332 332 333 331 329 325 320 309 253 203 236 292 36 66 209 227 239 287 289 322 302 7 224 161 114 188 231 123 151 174 233 193 175 167 167 179 151 157 185 183 224
321 317 317 320 322 322 329 330 331 332 331 327 322 311 263 251 195 142 100 194 201 204 227 303 330 63 331 335 66 72 203 191 190 177 191 167 252 293 192 149 148 188 155 187 121 44 98
313 318 322 324 323 322 324 329 332 334 334 329 318 319 275 32 151 102 101 223 217 214 252 48 215 224 234 42 28 30 293 225 205 182 182 214 256 223 244 162 226 173 168 99 3 145 221
309 311 312 315 321 321 320 325 333 335 337 329 12 335 303 155 118 59 192 227 228 243 224 214 211 240 117 329 189 212 235 276 202 198 181 164 142 266 145 205 213 127 152 64 125 137 174
304 307 309 313 314 318 319 321 331 336 340 0 10 327 333 5 30 163 205 201 243 244 184 235 154 215 199 202 241 224 216 219 176 130 166 209 196 220 219 224 200 193 184 165 197 230 217
307 308 307 317 312 316 318 327 327 335 348 328 315 273 304 114 233 255 301 299 291 278 269 241 241 199 188 208 239 203 217 232 237 164 209 183 221 222 284 298 218 187 171 126 120 94 189
305 303 307 310 311 311 315 318 325 331 337 327 309 323 310 32 40 30 352 271 264 278 261 223 227 268 257 261 233 257 249 278 216 225 292 196 174 195 225 228 174 190 174 177 153 145 174
301 304 305 306 305 306 311 311 316 330 339 294 238 254 245 304 326 346 257 292 280 269 290 267 282 217 213 224 225 224 245 264 264 43 352 117 194 197 225 183 179 205 175 170 177 185 163
298 299 299 299 300 307 313 318 314 330 343 271 295 324 344 295 294 309 194 278 308 328 271 260 210 266 287 228 208 233 210 202 186 5 36 347 265 198 229 206 193 227 215 177 197 112 260
298 294 294 294 294 298 298 300 314 310 40 6 300 291 270 285 309 317 241 340 309 323 262 244 282 336 289 258 316 275 230 268 215 121 260 296 174 96 245 180 163 238 232 199 193 184 168
295 293 293 289 284 285 291 293 295 298 183 188 274 279 273 276 256 262 314 314 295 299 291 279 297 253 252 328 284 251 237 261 179 159 156 225 187 167 242 90 173 237 175 214 197 166 212
298 296 294 293 292 281 283 284 277 281 230 170 162 158 287 273 283 285 271 294 300 291 253 270 275 256 346 311 301 268 257 197 37 67 132 181 216 273 184 165 243 63 53 135 153 194 330
294 295 297 299 294 286 281 284 274 267 261 158 206 175 213 279 241 266 342 299 285 284 320 267 306 315 309 209 173 189 200 163 136 100 67 339 268 143 325 151 185 217 303 46 267 71 360
290 291 293 299 294 287 282 279 275 275 262 178 226 189 232 266 265 273 256 272 291 333 276 296 341 325 6 4 196 200 231 205 152 169 108 271 308 102 294 220 287 18 322 305 141 206 323
290 289 285 293 296 291 285 279 276 258 266 186 236 200 181 257 276 263 261 265 284 277 259 333 331 316 337 2 205 247 233 319 116 169 192 215 291 227 253 41 200 358 343 162 149 144 119
287 287 281 285 295 287 284 280 281 278 267 224 234 249 170 226 272 302 267 254 245 240 306 294 271 277 237 313 273 273 319 343 160 133 168 186 191 156 188 44 304 313 341 10 131 102 104